Flag for Canada Weather past 2 weeks in Edmonton, Alberta, Canada

Now
14 °F

Passing clouds.


Feels Like: 6 °F
Forecast: 8 / 17 °F
Wind: 5 mph from Southwest

Location: Edmonton Municipal

Current Time: Dec 27, 2014 at 1:57:18 AM

Latest Report: Dec 27, 2014 at 1:00 AM


Visibility: 9 mi

Pressure: 30.07 "Hg

Humidity: 85%

Dew point: 10 °F

Location of EdmontonLocation

Historic Weather in Edmonton — Graph

°F

Edmonton temperature yesterday

Maximum temperature yesterday: 21 °F (at 11:00 PM)
Minimum temperature yesterday: 1 °F (at 7:00 AM)
Average temperature yesterday: 11 °F

Past Weeks' High & Low Weather Summary

 TemperatureHumidityPressure
High39 °F (Dec 12, 1:00 AM)100% (Dec 15, 9:00 AM)30.43 "Hg (Dec 15, 9:00 AM)
Low1 °F (Dec 26, 7:00 AM)59% (Dec 20, 4:00 PM)29.33 "Hg (Dec 21, 2:00 AM)
Average22 °F81%29.93 "Hg
* Reported Dec 12 1:00 AM — Dec 27 1:00 AM, Edmonton, Weather by CustomWeather, © 2014

Note: Actual official high and low records may vary slightly from our data, if they occured in-between our weather recording intervals... More about our weather records

Advertising

Edmonton weather history for previous 24 hours

 ConditionsComfort  
Time TempWeatherWind HumidityBarometerVisibility
1:00 AM
Dec 27
14 °FPassing clouds.5 mph85%30.07 "Hg9 mi
12:00 AM21 °FPassing clouds.7 mph80%30.09 "Hg9 mi
11:00 PM
Dec 26
21 °FOvercast.5 mph80%30.09 "Hg9 mi
10:00 PM19 °FOvercast.3 mph79%30.11 "Hg9 mi
9:00 PM18 °FOvercast.3 mph86%30.13 "Hg9 mi
8:00 PM18 °FOvercast.3 mph79%30.14 "Hg9 mi
7:00 PM18 °FOvercast.5 mph79%30.14 "Hg9 mi
6:00 PM18 °FOvercast.2 mph79%30.15 "Hg9 mi
5:00 PM18 °FOvercast.5 mph73%30.15 "Hg9 mi
4:00 PM16 °FPassing clouds.3 mph73%30.16 "Hg9 mi
3:00 PM18 °FSunny.5 mph73%30.15 "Hg9 mi
2:00 PM18 °FSunny.2 mph79%30.16 "Hg9 mi
1:00 PM16 °FSunny.2 mph93%30.17 "Hg9 mi
12:00 PM12 °FSunny.3 mph85%30.18 "Hg9 mi
11:00 AM9 °FSunny.2 mph85%30.21 "Hg9 mi
10:00 AM5 °FSunny.3 mph85%30.21 "Hg9 mi
9:00 AM5 °FSunny.3 mph85%30.20 "Hg9 mi
8:00 AM1 °FClear.No wind85%30.21 "Hg9 mi
7:00 AM1 °FClear.2 mph92%30.23 "Hg9 mi
6:00 AM3 °FClear.2 mph92%30.21 "Hg9 mi
5:00 AM3 °FClear.5 mph92%30.21 "Hg9 mi
4:00 AM3 °FClear.2 mph85%30.22 "Hg9 mi
3:00 AM5 °FClear.2 mph92%30.22 "Hg9 mi
2:00 AM7 °FClear.6 mph92%30.21 "Hg9 mi
1:00 AM9 °FClear.6 mph85%30.20 "Hg9 mi
Weather by CustomWeather, © 2014

See weather overviewHow to use our weather pages